This is the latest recevied weather packets stored in our database for station/object KI6SYE. If no packets are shown the sender has not sent any weather packets the latest 10 day(s).
| Time | Temp. | Humidity | Pressure | Rain* | Wind** | Luminosity | Snow |
|---|---|---|---|---|---|---|---|
| 1778007944 | 16.11° C | 74% | 1015.3 hPa | 0 mm | - | 577 W/m² | - |
| 1778007640 | 16.67° C | 72% | 1015.4 hPa | 0 mm | - | 837 W/m² | - |
| 1778007337 | 16.67° C | 70% | 1015.2 hPa | 0 mm | - | 689 W/m² | - |
| 1778007033 | 17.22° C | 71% | 1015.3 hPa | 0 mm | - | 631 W/m² | - |
| 1778006730 | 16.67° C | 70% | 1015.3 hPa | 0 mm | - | 708 W/m² | - |
| 1778006427 | 16.67° C | 73% | 1015.5 hPa | 0 mm | - | 503 W/m² | - |
| 1778006125 | 16.67° C | 74% | 1015.4 hPa | 0 mm | - | 697 W/m² | - |
| 1778005822 | 16.11° C | 73% | 1015.5 hPa | 0 mm | - | 440 W/m² | - |
| 1778005518 | 16.11° C | 73% | 1015.2 hPa | 0 mm | - | 339 W/m² | - |
| 1778005215 | 16.11° C | 73% | 1015.3 hPa | 0 mm | - | 346 W/m² | - |
| 1778004911 | 16.11° C | 73% | 1015.3 hPa | 0 mm | - | 703 W/m² | - |
| 1778004608 | 16.67° C | 73% | 1015.3 hPa | 0 mm | - | 392 W/m² | - |
| 1778004304 | 16.11° C | 74% | 1015.2 hPa | 0 mm | - | 325 W/m² | - |
| 1778004001 | 16.67° C | 73% | 1015.1 hPa | 0 mm | - | 371 W/m² | - |
| 1778003697 | 16.67° C | 74% | 1015 hPa | 0 mm | - | 746 W/m² | - |
| 1778003394 | 16.67° C | 74% | 1015.2 hPa | 0 mm | - | 788 W/m² | - |
| 1778003091 | 16.67° C | 74% | 1014.9 hPa | 0 mm | - | 708 W/m² | - |
| 1778002787 | 16.11° C | 76% | 1015 hPa | 0 mm | - | 520 W/m² | - |
| 1778002484 | 16.67° C | 76% | 1015.2 hPa | 0 mm | - | 582 W/m² | - |
| 1778002181 | 16.11° C | 77% | 1015 hPa | 0 mm | - | 737 W/m² | - |
| 1778001879 | 16.67° C | 75% | 1015.1 hPa | 0 mm | - | 700 W/m² | - |
| 1778001578 | 16.11° C | 75% | 1014.9 hPa | 0 mm | - | 691 W/m² | - |
| 1778001275 | 15.56° C | 78% | 1014.9 hPa | 0 mm | - | 560 W/m² | - |
| 1778000972 | 15.56° C | 79% | 1015 hPa | 0 mm | - | 386 W/m² | - |
| 1778000669 | 15.56° C | 79% | 1014.8 hPa | 0 mm | - | 224 W/m² | - |
* Rain latest hour (hover to see other rain measurements)
** Current wind speed in m/s (hover to see current wind gust speed)